Regional Weather Roundup
Issued by NWS Wilmington, NC

Home | Current Version | Previous Version | Text Only | Print | Product List | Glossary On
Versions: 1 2 3 4 5 6 7 8 9 10 11 12 13 14 15 16 17 18 19 20 21 22 23 24 25 26 27
000
ASUS42 KILM 261614
RWRILM
RWRILM
REGIONAL HOURLY WEATHER ROUNDUP
NATIONAL WEATHER SERVICE WILMINGTON NC
1200 PM EDT TUE SEP 26 2017

NOTE: "FAIR" INDICATES FEW OR NO CLOUDS BELOW 12,000 FEET WITH NO
SIGNIFICANT WEATHER AND/OR OBSTRUCTIONS TO VISIBILITY.

...............WFO WILMINGTON COUNTY WARNING AREA...............

......COASTAL NC AND SC COUNTIES......

CITY           SKY/WX    TMP DP  RH WIND       PRES   REMARKS
WILMINGTON     CLOUDY    79  71  76 N18G28    29.83S
N MYRTLE BEACH CLOUDY    80  72  76 N10G20    29.85F
MYRTLE BEACH   CLOUDY    79  71  76 N14       29.88S

......INLAND NC AND SC COUNTIES.......

CITY           SKY/WX    TMP DP  RH WIND       PRES   REMARKS
LUMBERTON      NOT AVBL
ELIZABETHTOWN  NOT AVBL
WHITEVILLE     CLOUDY    79  71  76 N8        29.87F
FLORENCE       MOSUNNY   82  72  71 N10       29.90F
DARLINGTON     MOSUNNY   82  72  71 N10       29.92S
KINGSTREE      FAIR      81  72  74 NW6       29.90S
HARTSVILLE     FAIR      82  70  65 N7        29.92S
BENNETTSVILLE  PTSUNNY   86  72  62 N7        29.90F HX  92
CONWAY         CLOUDY    77  72  83 N6        29.88F HAZE
GEORGETOWN     CLOUDY    75  73  94 NW8       29.89F
MARION         CLOUDY    75  70  83 N8        29.91R

....................REST OF NORTH CAROLINA......................

.........EASTERN NC.........

CITY           SKY/WX    TMP DP  RH WIND       PRES   REMARKS
CAPE HATTERAS  LGT RAIN  77  75  93 NE16G37   29.68F FOG
JACKSONVILLE   CLOUDY    78  72  81 N8G17     29.83S
MOREHEAD CITY  CLOUDY    81  75  82 N24G39    29.73F
KENANSVILLE    CLOUDY    77  72  83 N14G21    29.87S
NEW BERN       CLOUDY    81  73  76 N20G29    29.81F
ELIZABETH CITY CLOUDY    78  75  90 N23G30    29.84F

.........CENTRAL NC.........

CITY           SKY/WX    TMP DP  RH WIND       PRES   REMARKS
RALEIGH DURHAM CLOUDY    75  70  84 NE10      29.94S
ROCKY MOUNT    CLOUDY    77  72  84 N17       29.91S
ROANOKE RAPIDS NOT AVBL
FAYETTEVILLE   PTSUNNY   81  72  74 N15       29.89F
HOFFMAN        MOSUNNY   82  72  69 NE15      29.91F

.........WESTERN NC.........

CITY           SKY/WX    TMP DP  RH WIND       PRES   REMARKS
CHARLOTTE      PTSUNNY   81  68  64 N10       29.99S
GREENSBORO     PTSUNNY   78  69  73 N10       29.98F
HICKORY        NOT AVBL
BOONE          NOT AVBL
ASHEVILLE      NOT AVBL

.....................REST OF SOUTH CAROLINA.....................

.........EASTERN SC.........

CITY           SKY/WX    TMP DP  RH WIND       PRES   REMARKS
CHARLESTON     MOSUNNY   85  73  67 NW12      29.88F HX  91
BEAUFORT MCAS    N/A     85  73  67 W8        29.91F HX  91
HILTON HEAD    SUNNY     82  70  65 N9        29.92

.........CENTRAL SC.........

CITY           SKY/WX    TMP DP  RH WIND       PRES   REMARKS
COLUMBIA       MOSUNNY   85  67  54 N6        29.93F
ORANGEBURG     SUNNY     82  69  64 NW8       29.93F
SUMTER SHAW    MOSUNNY   85  70  61 N6        29.89F

.........WESTERN SC.........

CITY           SKY/WX    TMP DP  RH WIND       PRES   REMARKS
GREENVILLE     NOT AVBL
ROCK HILL        N/A    N/A N/A N/A MISG      29.98F
ANDERSON       SUNNY     80  65  59 E5        29.99F
CLEMSON        NOT AVBL
GREENWOOD      MOSUNNY   83  66  56 NE8       29.99F


...................COASTAL AND OFFSHORE REPORTS..................

................LOCAL PIERS AND NC RESERVE................


STATION/POSITION TIME  SKY/WX   TEMP    WIND        PRES    VSBY
                                AIR SEA DIR/SP/G
                 (UTC)          (F)     (DEG/KT/KT) (MB)    (MI)
JOHNY MRCER PIER 1536            78 80  330/ 18/ 24 1008.5F
NC RESRV MASNBRO 1445            79      10/  2     1010.0
OCEAN CREST PIER NOT AVBL
SPRINGMAID  PIER 1536                               1010.8F


................COASTAL AND OFFSHORE BUOYS................


STATION/POSITION TIME  SKY/WX   TEMP    WIND        PRES    VSBY
                                AIR SEA DIR/SP/G
                 (UTC)          (F)     (DEG/KT/KT) (MB)    (MI)
DIMNDSHOAL 41025 1550            76 80   10/ 31/ 39 1002.0F
WVE H/P(F/S)= 19/13 SWL H/P/D(F/S/D)= 16/140/13

CAPE LOOKOUT     1600            80     360/ 29/ 37 1005.6F
ONSLOW BAY 41036 NOT AVBL
ONSLOW BAY 41064 1508            79      10/ 23/ 31 1006.6R
ONSLOW BAY 41159 NOT AVBL
MASNBO INL 41110 1559               78                N/A
WVE H/P(F/S)=  6/13 SWL H/P/D(F/S/D)=  3/110/13

WILM HARBR 41108 1600               79                N/A
WVE H/P(F/S)=  6/13 SWL H/P/D(F/S/D)=  5/150/13

27SE WRITB 41037 1508            78 79  360/ 19/ 27 1007.7R
FRYING PAN 41013 1600            77 81  330/ 21/ 27 1008.7
SUNST NRSH 41024 1508            76 79   10/ 14/ 19 1010.3R
CAPRS NRSH 41029 1508            77 80  350/  6/  8 1011.5F
EDISTO     41004 1550            75 81  330/ 12/ 14 1010.9F
WVE H/P(F/S)=  7/13 SWL H/P/D(F/S/D)=  7/100/13



..........OFFSHORE BUOYS BEYOND 100 NM OFFSHORE...........
.....IN A TRIANGLE---HAT TO BERMUDA TO BAHAMAS TO HAT.....


STATION/POSITION TIME  SKY/WX   TEMP    WIND        PRES    VSBY
                                AIR SEA DIR/SP/G
                 (UTC)          (F)     (DEG/KT/KT) (MB)    (MI)
150E HAT   41001 NOT AVBL
W BERMUDA  41048 1600            81 80  180/ 25/ 35 1010.2
ATLANTIC S 41049 1550            82 83  140/  6/ 10 1019.2F
WVE H/P(F/S)=  9/12 SWL H/P/D(F/S/D)= 10/280/12

E BAHAMAS  41046 1600            79 84  120/ 10/ 14 1017.0
NE BAHAMAS 41047 1600            80 80  200/ 16/ 19 1014.7
120E CANVRL41010 1550                   310/ 14/ 16 1011.9F
WVE H/P(F/S)=  6/10 SWL H/P/D(F/S/D)=  5/10


END




USA.gov is the U.S. government's official web portal to all federal, state and local government web resources and services.